Regional Weather Roundup
Issued by NWS

Home | Current Version | Previous Version | Graphics & Text | Print | Product List | Glossary On
Versions: 1 2 3 4 5 6 7 8 9 10 11 12 13 14 15 16 17 18 19 20 21 22 23 24 25 26 27 28 29 30 31 32 33 34 35 36 37 38 39 40 41 42 43 44 45 46 47 48 49 50
000
ASUS44 KMEG 191500
RWRTN
TENNESSEE HOURLY STATE WEATHER ROUNDUP
NATIONAL WEATHER SERVICE MEMPHIS TN
1000 AM CDT WED JUL 19 2017

TNZ002-004-019-021-049-052-054-088>092-191600-
WEST TENNESSEE

CITY           SKY/WX    TMP DP  RH WIND       PRES   REMARKS
MEMPHIS INTL   MOSUNNY   92  74  55 VRB3      30.15S HX 101
JACKSON        PTSUNNY   86  75  69 NW3       30.16S HX  95
$$

TNZ008-025-027-028-033-062-065-066-191600-
NORTH MIDDLE TENNESSEE

CITY           SKY/WX    TMP DP  RH WIND       PRES   REMARKS
NASHVILLE      MOSUNNY   89  71  55 NW6       30.16S HX  95
CLARKSVILLE    SUNNY     86  73  65 NW10      30.15S HX  93
SMYRNA         MOSUNNY   87  73  62 N5        30.17S HX  94
CROSSVILLE     MOSUNNY   81  67  62 VRB6      30.24R
$$

TNZ061-075-076-078-094-096-097-191600-
SOUTH MIDDLE TENNESSEE

CITY           SKY/WX    TMP DP  RH WIND       PRES   REMARKS
TULLAHOMA      MOSUNNY   84  66  54 NW3       30.20R
WINCHESTER     SUNNY     84  72  65 CALM      30.19S
MCMINNVILLE    MOSUNNY   84  75  74 CALM      30.19S HX  92
$$

TNZ017-018-042-046-047-191600-
NORTHEAST TENNESSEE

CITY           SKY/WX    TMP DP  RH WIND       PRES   REMARKS
TRI CITIES     SUNNY     82  67  60 CALM      30.21S
$$

TNZ012-013-036-069-073-074-191600-
CENTRAL EAST TENNESSEE

CITY           SKY/WX    TMP DP  RH WIND       PRES   REMARKS
KNOXVILLE      MOSUNNY   84  69  60 W5        30.17F
OAK RIDGE      SUNNY     84  70  62 CALM      30.19R
GATLINBURG     SUNNY     84  66  54 W5        30.17S
$$

TNZ083-085-099-191600-
SOUTHEAST TENNESSEE

CITY           SKY/WX    TMP DP  RH WIND       PRES   REMARKS
CHATTANOOGA    MOSUNNY   86  72  62 CALM      30.17S HX  92
$$

SKY/WX REPORTED AS FAIR MEANS FEW OR NO CLOUDS BELOW
12 THOUSAND FEET.





USA.gov is the U.S. government's official web portal to all federal, state and local government web resources and services.